Regional Weather Roundup
Issued by NWS Cleveland, OH

Home | Current Version | Previous Version | Text Only | Print | Product List | Glossary Off
Versions: 1 2 3 4 5 6 7 8 9 10 11 12 13 14 15 16 17 18 19 20 21 22 23 24 25 26 27 28 29 30 31 32 33 34 35 36 37 38 39 40 41 42 43 44 45 46 47 48 49 50

000
ASUS41 KCLE 241912
RWRCLE
OHIO REGIONAL WEATHER ROUNDUP
NATIONAL WEATHER SERVICE WILMINGTON, OH
300 PM EDT TUE MAY 24 2016

NOTE: "FAIR" INDICATES FEW OR NO CLOUDS BELOW 12,000 FEET WITH NO
SIGNIFICANT WEATHER AND/OR OBSTRUCTIONS TO VISIBILITY.

OHZ001>008-015>018-024>027-034-035-043-044-242000-
   NORTHWEST OHIO

CITY           SKY/WX    TMP DP  RH WIND       PRES   REMARKS
DEFIANCE       FAIR      83  46  27 W7        30.04S
FINDLAY        FAIR      82  43  25 SW5       30.04F
TOLEDO EXPRESS FAIR      83  42  23 W9        30.02F
TOLEDO EXEC    FAIR      82  41  23 S7        30.03F
LIMA           FAIR      79  44  28 SW8       30.06F
$$

OHZ009>014-019>023-028>033-038-089-242000-
   NORTHEAST OHIO

CITY           SKY/WX    TMP DP  RH WIND       PRES   REMARKS
CLE-HOPKINS    FAIR      81  45  28 W9G18     30.07F
CLE-LAKEFRONT  FAIR      72  54  53 NW5       30.05F
CUY CO. ARPT   SUNNY     81  46  30 W9        30.08F
LORAIN-ELYRIA  FAIR      80  42  25 NW7       30.06F
ASHTABULA      FAIR      78  36  21 W13G22    30.07S
AKRON-CANTON   FAIR      79  47  32 W9        30.08S
WOOSTER        FAIR      79  47  32 SW15      30.08F
MANSFIELD      FAIR      79  46  31 SW8G16    30.08F
YOUNGSTOWN     FAIR      79  45  29 W8G17     30.06F
$$

OHZ042-051>053-060>062-070>072-077>081-242000-
  SOUTHWEST OHIO

CITY           SKY/WX    TMP DP  RH WIND       PRES   REMARKS
CINC-COVINGTON FAIR      79  47  32 SE5       30.10F
CINC-LUNKEN    FAIR      78  52  40 SW10      30.09F
HAMILTON       FAIR      80  48  32 VRB6      30.09F
DAYTON         PTSUNNY   78  48  34 SW12      30.09F
WRIGHT-PAT AFB FAIR      78  48  34 S10       30.08F
DAYTON GENERAL FAIR      78  48  34 S9G17     30.08F
WILMINGTON     FAIR      77  50  38 S9        30.10F
$$

OHZ036-037-039>041-045>050-054>059-063>069-073>076-082>088-242000-
  CENTRAL AND SOUTHEAST OHIO

CITY           SKY/WX    TMP DP  RH WIND       PRES   REMARKS
COLUMBUS       FAIR      78  51  38 VRB7      30.08F
OSU AIRPORT    FAIR      80  51  36 SW9       30.07F
BOLTON FIELD   SUNNY     79  54  41 SW12G18   30.09F
RICKENBACK AFB FAIR      78  52  41 W9        30.08F
NEWARK         FAIR      80  51  36 SW14      30.09F
MARION         FAIR      79  44  28 W8        30.08F
LANCASTER      FAIR      77  53  43 SW9       30.10F
ZANESVILLE     FAIR      80  51  36 W10       30.10R
NEW PHILLY     FAIR      81  48  31 NW9       30.08S
$$




USA.gov is the U.S. government's official web portal to all federal, state and local government web resources and services.